Regional Weather Roundup
Issued by NWS

Home | Current Version | Previous Version | Graphics & Text | Print | Product List | Glossary On
Versions: 1 2 3 4 5 6 7 8 9 10 11 12 13 14 15 16 17 18 19 20 21 22 23 24 25 26 27 28 29 30 31 32 33 34 35 36 37 38 39 40 41 42 43 44 45 46 47 48 49 50
000
ASUS45 KCYS 271210
RWRWY

WYOMING REGIONAL WEATHER ROUNDUP
NATIONAL WEATHER SERVICE CHEYENNE WY
500 AM MST THU NOV 27 2014

NOTE:  "FAIR" INDICATES FEW OR NO CLOUDS BELOW 12,000 FEET
WITH NO SIGNIFICANT WEATHER AND/OR OBSTRUCTIONS TO VISIBILITY.

WYZ001-271300-
YELLOWSTONE NATIONAL PARK

CITY           SKY/WX    TMP DP  RH WIND       PRES   REMARKS
LK YELLOWSTONE   N/A     30  27  88 N3        30.23F
6HR MIN TEMP:  29; 6HR MAX TEMP:  33;

W YELLOWSTONE  NOT AVBL

$$
WYZ002>013-054>058-071-098>099-271300-
NORTHERN WYOMING

CITY           SKY/WX    TMP DP  RH WIND       PRES   REMARKS
JACKSON        CLOUDY    37  28  70 SW9       30.23F WCI  31
CODY           MOCLDY    25  21  86 N7        30.03S WCI  17
GREYBULL       CLOUDY    22  21  96 S6        30.10F WCI  14
6HR MIN TEMP:  21; 6HR MAX TEMP:  22;

WORLAND        CLOUDY    20  16  84 S7        30.10F WCI  11
6HR MIN TEMP:  20; 6HR MAX TEMP:  21;

SHERIDAN       MOCLDY    22  19  89 CALM      30.03S
6HR MIN TEMP:  20; 6HR MAX TEMP:  24;

BUFFALO        MOCLDY    41  25  53 VRB6      30.03R
6HR MIN TEMP:  20; 6HR MAX TEMP:  41;

GILLETTE       MOCLDY    27  21  78 SE14      30.02F WCI  16
6HR MIN TEMP:  21; 6HR MAX TEMP:  28;

HULETT           N/A    N/A N/A N/A MISG        N/A
NEWCASTLE      FAIR      19  19 100 SE5       30.13S WCI  13

$$
WYZ014>020-022>026-101>103-271300-
CENTRAL WYOMING

CITY           SKY/WX    TMP DP  RH WIND       PRES   REMARKS
BIG PINEY      PTCLDY   N/A N/A N/A E6        30.31F
PINEDALE       MOSUNNY   14  14 100 NW7       30.33F WCI   4
DUBOIS         FAIR      36  23  60 N17G30    30.18S WCI  25
LANDER         PTCLDY    32  23  69 W9        30.13F WCI  24
6HR MIN TEMP:  28; 6HR MAX TEMP:  37;

RIVERTON       MOCLDY    32  24  72 SW8       30.15F WCI  25
6HR MIN TEMP:  30; 6HR MAX TEMP:  39;

CASPER         CLOUDY    39  26  59 SW13G20   30.12F WCI  31
6HR MIN TEMP:  33; 6HR MAX TEMP:  41;

DOUGLAS        CLOUDY    22  19  89 SE3       30.12F
6HR MIN TEMP:  15; 6HR MAX TEMP:  22;


$$
WYZ021-027>030-104>119-271300-
SOUTHERN WYOMING

CITY           SKY/WX    TMP DP  RH WIND       PRES   REMARKS
EVANSTON       MOCLDY    34  22  61 SW20      30.33F WCI  23
6HR MIN TEMP:  31; 6HR MAX TEMP:  35;

FORT BRIDGER   FAIR      40  20  44 SW17G24   30.34F WCI  31
ROCK SPRINGS   MOCLDY    34  19  54 W9        30.32S WCI  27
6HR MIN TEMP:  33; 6HR MAX TEMP:  39;

DIXON          FAIR      29  26  89 NE5       30.40S WCI  24
RAWLINS        CLOUDY    40  21  46 W21G30    30.28R WCI  30
6HR MIN TEMP:  38; 6HR MAX TEMP:  40;

SARATOGA       FAIR      39  23  52 S10G18    30.30F WCI  32
LARAMIE        PTCLDY    38  19  46 SW17      30.24R WCI  28
6HR MIN TEMP:  32; 6HR MAX TEMP:  39;

CHEYENNE       PTCLDY    43  20  39 W21       30.17F
6HR MIN TEMP:  25; 6HR MAX TEMP:  44;

TORRINGTON     CLOUDY    18  16  92 E3        30.14F
6HR MIN TEMP:  18; 6HR MAX TEMP:  23;

PINE BLUFFS    FAIR      25  21  86 S10       30.18F WCI  15

$$


USA.gov is the U.S. government's official web portal to all federal, state and local government web resources and services.